Weather History for Jonesboro, AR

Change the Weather History Date:

Wednesday, May 29, 2013

  Actual Average Record
Temperature  
Mean Temperature 79 °F 73 °F  
Max Temperature 89 °F 84 °F 100 °F (1926)
Min Temperature 68 °F 62 °F 44 °F (1897)
Degree Days  
Heating Degree Days 0 0  
Month to date heating degree days 71 35  
Since 1 July heating degree days 3556 3650  
Cooling Degree Days 14 8  
Month to date cooling degree days 153 147  
Year to date cooling degree days 202 194  
Growing Degree Days 29 (Base 50)    
Moisture  
Dew Point 64 °F    
Average Humidity 63    
Maximum Humidity 82    
Minimum Humidity 43    
Precipitation  
Precipitation 0.00 in 0.09 in 3.63 in (1924)
Month to date precipitation 7.34 4.43  
Year to date precipitation 23.87 21.10  
Snow  
Snow 0.00 in 0.00 in - ()
Month to date snowfall 0.0 0.0  
Since 1 July snowfall 11.0 4.8  
Snow Depth 0.00 in    
Sea Level Pressure  
Sea Level Pressure 29.95 in    
Wind  
Wind Speed 12 mph (South)    
Max Wind Speed 24 mph    
Max Gust Speed 30 mph    
Visibility 10 miles    
Events      
T = Trace of Precipitation, MM = Missing Value Source: NWS Daily Summary

Daily Weather History Graph

Daily Weather History Graph

Search for Another Location

Airport:

Trip Planner

Search our weather history database for the weather conditions in past years. The results will help you decide how hot, cold, wet, or windy it might be!

Date:

Astronomy

May. 29, 2013 Rise Set
Actual Time 5:48 AM CDT 8:11 PM CDT
Civil Twilight 5:19 AM CDT 8:41 PM CDT
Nautical Twilight 4:42 AM CDT 9:17 PM CDT
Astronomical Twilight 4:03 AM CDT 9:57 PM CDT
Moon No Moon Rise 10:42 AM CDT (5/29)
Length of Visible Light 15h 22m
Length of Day
14h 23m
Waning Gibbous, 73% of the Moon is Illuminated
May 29
Waning Gibbous
May 31
Last Quarter
Jun 8
New
Jun 16
First Quarter
Jun 23
Full

Hourly Weather History & Observations

Time (CDT) Temp. Heat Index Dew Point Humidity Pressure Visibility Wind Dir Wind Speed Gust Speed Precip Events Conditions
12:53 AM 72.0 °F - 60.1 °F 66% 29.95 in 10.0 mi SSE 4.6 mph - N/A   Clear
1:53 AM 71.1 °F - 60.1 °F 68% 29.95 in 10.0 mi Calm Calm - N/A   Clear
2:53 AM 69.1 °F - 61.0 °F 75% 29.95 in 10.0 mi South 4.6 mph - N/A   Clear
3:53 AM 69.1 °F - 62.1 °F 78% 29.96 in 10.0 mi South 5.8 mph - N/A   Clear
4:53 AM 70.0 °F - 62.1 °F 76% 29.97 in 10.0 mi South 5.8 mph - N/A   Partly Cloudy
5:53 AM 69.1 °F - 61.0 °F 75% 29.98 in 10.0 mi South 6.9 mph - N/A   Clear
6:53 AM 71.1 °F - 62.1 °F 73% 29.99 in 10.0 mi South 8.1 mph - N/A   Scattered Clouds
7:53 AM 73.9 °F - 63.0 °F 68% 29.99 in 10.0 mi South 12.7 mph - N/A   Clear
8:53 AM 77.0 °F - 64.9 °F 66% 30.01 in 10.0 mi South 10.4 mph - N/A   Scattered Clouds
9:53 AM 82.0 °F 84.5 °F 66.9 °F 60% 30.00 in 10.0 mi SSW 12.7 mph - N/A   Partly Cloudy
10:53 AM 82.9 °F 85.0 °F 66.0 °F 56% 30.00 in 10.0 mi SSW 13.8 mph 20.7 mph N/A   Clear
11:53 AM 84.9 °F 86.1 °F 64.0 °F 49% 29.99 in 10.0 mi South 11.5 mph - N/A   Partly Cloudy
12:53 PM 87.1 °F 87.8 °F 63.0 °F 44% 29.96 in 10.0 mi South 18.4 mph 25.3 mph N/A   Clear
1:53 PM 87.1 °F 88.9 °F 64.9 °F 48% 29.96 in 10.0 mi South 16.1 mph 21.9 mph N/A   Scattered Clouds
2:53 PM 89.1 °F 92.1 °F 66.9 °F 48% 29.94 in 10.0 mi South 16.1 mph 25.3 mph N/A   Scattered Clouds
3:53 PM 87.1 °F 89.2 °F 66.0 °F 49% 29.93 in 10.0 mi South 16.1 mph 34.5 mph N/A   Scattered Clouds
4:53 PM 89.1 °F 91.3 °F 66.0 °F 46% 29.91 in 10.0 mi South 16.1 mph 25.3 mph N/A   Mostly Cloudy
5:53 PM 87.1 °F 88.3 °F 64.0 °F 46% 29.90 in 10.0 mi SSE 17.3 mph 21.9 mph N/A   Scattered Clouds
6:53 PM 84.9 °F 85.9 °F 63.0 °F 48% 29.90 in 10.0 mi SSE 15.0 mph 24.2 mph N/A   Partly Cloudy
7:53 PM 82.0 °F 83.8 °F 64.9 °F 56% 29.90 in 10.0 mi SSE 15.0 mph - N/A   Clear
8:53 PM 81.0 °F 82.7 °F 64.9 °F 58% 29.88 in 10.0 mi South 15.0 mph 24.2 mph N/A   Clear
9:53 PM 77.0 °F - 66.0 °F 69% 29.89 in 10.0 mi South 9.2 mph - N/A   Scattered Clouds
10:53 PM 75.9 °F - 68.0 °F 76% 29.91 in 10.0 mi South 10.4 mph - N/A   Clear
11:53 PM 75.0 °F - 69.1 °F 82% 29.93 in 10.0 mi South 9.2 mph - N/A   Clear